Regional Weather Roundup
Issued by NWS Wilmington, NC

Home | Current Version | Previous Version | Text Only | Print | Product List | Glossary On
Versions: 1 2 3 4 5 6 7 8 9 10 11 12 13 14 15 16 17 18 19 20 21 22 23 24 25 26 27 28 29 30 31 32 33 34 35 36 37 38 39 40 41 42 43 44 45 46 47 48 49 50
000
ASUS42 KILM 020813
RWRILM
RWRILM
REGIONAL HOURLY WEATHER ROUNDUP
NATIONAL WEATHER SERVICE WILMINGTON NC
400 AM EDT MON MAY 02 2016

NOTE: "FAIR" INDICATES FEW OR NO CLOUDS BELOW 12,000 FEET WITH NO
SIGNIFICANT WEATHER AND/OR OBSTRUCTIONS TO VISIBILITY.

...............WFO WILMINGTON COUNTY WARNING AREA...............

......COASTAL NC AND SC COUNTIES......

CITY           SKY/WX    TMP DP  RH WIND       PRES   REMARKS
WILMINGTON     MOCLDY    66  64  93 CALM      30.03R
N MYRTLE BEACH CLOUDY    71  69  93 SW7       30.02S
MYRTLE BEACH   CLOUDY    72  64  78 SW3       30.05S

......INLAND NC AND SC COUNTIES.......

CITY           SKY/WX    TMP DP  RH WIND       PRES   REMARKS
LUMBERTON      CLOUDY    69  66  90 SW5       30.01F FOG
ELIZABETHTOWN  CLOUDY    67  67 100 CALM      30.03R
WHITEVILLE     CLOUDY    66  65  96 SW3       30.02S FOG
FLORENCE       CLOUDY    69  67  93 N9        30.03R FOG
DARLINGTON     NOT AVBL
KINGSTREE      CLOUDY    64  64 100 CALM      30.02S FOG
HARTSVILLE     FAIR     N/A N/A N/A CALM      30.02F
BENNETTSVILLE  FAIR      72  68  88 SW7       30.00F
CONWAY         FOG       63  63 100 CALM      30.03S VSB 1/4
GEORGETOWN     FOG       64  64 100 CALM      30.04S VSB 3/4
MARION         FOG       64  64 100 CALM      30.02S VSB 1

....................REST OF NORTH CAROLINA......................

.........EASTERN NC.........

CITY           SKY/WX    TMP DP  RH WIND       PRES   REMARKS
CAPE HATTERAS  CLOUDY    68  67  96 SW6       30.02F
JACKSONVILLE   CLOUDY    65  64  97 S3        30.03R FOG
MOREHEAD CITY  MOCLDY    69  68  96 S8        30.03S
KENANSVILLE    MOCLDY    66  65  97 SW3       30.02F
NEW BERN       CLOUDY    68  66  93 S5        30.03S
ELIZABETH CITY CLOUDY    67  66  97 S8        29.99F

.........CENTRAL NC.........

CITY           SKY/WX    TMP DP  RH WIND       PRES   REMARKS
RALEIGH DURHAM CLOUDY    66  64  93 SW3       29.99S
ROCKY MOUNT    CLOUDY    67  66  97 S9        29.98F
ROANOKE RAPIDS NOT AVBL
FAYETTEVILLE   CLOUDY    68  65  90 S7        30.01R
HOFFMAN        LGT RAIN  68  66  94 S10       29.97F

.........WESTERN NC.........

CITY           SKY/WX    TMP DP  RH WIND       PRES   REMARKS
CHARLOTTE      CLOUDY    67  63  87 S3        29.99S
GREENSBORO     CLOUDY    66  66 100 SW6       29.98S FOG
HICKORY        NOT AVBL
BOONE          NOT AVBL
ASHEVILLE      NOT AVBL

.....................REST OF SOUTH CAROLINA.....................

.........EASTERN SC.........

CITY           SKY/WX    TMP DP  RH WIND       PRES   REMARKS
CHARLESTON     PTCLDY    70  68  93 S6        30.02F
BEAUFORT MCAS  PTCLDY    74  71  91 VRB3      30.02S
HILTON HEAD    PTCLDY    73  73 100 S6        30.03F

.........CENTRAL SC.........

CITY           SKY/WX    TMP DP  RH WIND       PRES   REMARKS
COLUMBIA       MOCLDY    70  65  84 W3        30.01S
ORANGEBURG     FOG       68  67  96 SW5       30.03R VSB 1/2
SUMTER SHAW    CLOUDY    70  68  94 W3        30.01R

.........WESTERN SC.........

CITY           SKY/WX    TMP DP  RH WIND       PRES   REMARKS
GREENVILLE     NOT AVBL
ROCK HILL        N/A    N/A N/A N/A MISG      29.99F
ANDERSON       CLOUDY    67  66  97 S3        30.00F
CLEMSON        NOT AVBL
GREENWOOD      MOCLDY    69  64  84 S5        30.01F


...................COASTAL AND OFFSHORE REPORTS..................

................LOCAL PIERS AND NC RESERVE................


STATION/POSITION TIME  SKY/WX   TEMP    WIND        PRES    VSBY
                                AIR SEA DIR/SP/G
                 (UTC)          (F)     (DEG/KT/KT) (MB)    (MI)
JOHNY MRCER PIER 0700            69 69  190/  8/ 10 1015.7F
NC RESRV MASNBRO NOT AVBL
OCEAN CREST PIER NOT AVBL
SPRINGMAID  PIER 0700            71 70  190/  5/  6 1016.4F


................COASTAL AND OFFSHORE BUOYS................


STATION/POSITION TIME  SKY/WX   TEMP    WIND        PRES    VSBY
                                AIR SEA DIR/SP/G
                 (UTC)          (F)     (DEG/KT/KT) (MB)    (MI)
DIMNDSHOAL 41025 0750            73 73  240/ 10/ 12 1016.8S
WVE H/P(F/S)=  4/11 SWL H/P/D(F/S/D)=  3/ 90/11

CAPE LOOKOUT     0800            70     210/  7/  8 1016.6F
ONSLOW BAY 41036 NOT AVBL
ONSLOW BAY 41064 NOT AVBL
ONSLOW BAY 41159 0725               70                N/A
WVE H/P(F/S)=  4/ 9

5SE WRITBC 41038 0708            70 68  210/  6/  8 1017.3F
MASNBO INL 41110 0706               68                N/A
WVE H/P(F/S)=  3/ 5

WILM HARBR 41108 0726               69                N/A
WVE H/P(F/S)=  2/ 5

27SE WRITB 41037 0708            73 71  220/ 10/ 14 1016.2F
FRYING PAN 41013 0700            73 71  200/  8/ 10 1017.0F
SUNST NRSH 41024 0708            70 69  210/  6/ 10 1016.1F
CAPRS NRSH 41029 0708            73 72  190/  6/  8 1016.5R
EDISTO     41004 0750            75 73  180/  8/  8 1016.3R
WVE H/P(F/S)=  3/10 SWL H/P/D(F/S/D)=  3/10



..........OFFSHORE BUOYS BEYOND 100 NM OFFSHORE...........
.....IN A TRIANGLE---HAT TO BERMUDA TO BAHAMAS TO HAT.....


STATION/POSITION TIME  SKY/WX   TEMP    WIND        PRES    VSBY
                                AIR SEA DIR/SP/G
                 (UTC)          (F)     (DEG/KT/KT) (MB)    (MI)
150E HAT   41001 NOT AVBL
W BERMUDA  41048 0750            68 70  140/  4/  6 1020.3F
WVE H/P(F/S)=  5/11 SWL H/P/D(F/S/D)=  5/ 20/11

ATLANTIC S 41049 0750            73 76  240/  2/  2 1018.8F
WVE H/P(F/S)=  3/ 9 SWL H/P/D(F/S/D)=  3/ 80/ 9

E BAHAMAS  41046 0750            78 79   90/ 14/ 16 1016.9F
WVE H/P(F/S)=  4/ 6 SWL H/P/D(F/S/D)=  3/130/ 6

NE BAHAMAS 41047 0750            75 77  100/ 12/ 14 1018.8F
WVE H/P(F/S)=  5/ 9 SWL H/P/D(F/S/D)=  3/ 20/ 9

120E CANVRL41010 0720            77 79  150/ 14/ 16 1017.2F

END



USA.gov is the U.S. government's official web portal to all federal, state and local government web resources and services.